カタログに戻る

CZ-6A DEB

運用中SSO
NORAD 54563·DEBRIS·🇨🇳 China

打ち上げ Nov 11, 2022 から Taiyuan Satellite Launch Center

Loading…

次のパス (今後24時間)

TLE

最新Source: Space-Track

元期: Sep 14, 2026, 11:16 UTC

1 54563U 22151LP  26257.46949355  .00000653  00000-0  35726-3 0  9991
2 54563  98.8324 263.5720 0037065  65.1753 295.3268 14.15035376197762

AllMySatでCZ-6A DEBをリアルタイム追跡

Download on the App Store